OPS 4682 DEB, 38400

Orbit data source: Space-Track

OPS 4682 DEB, 38400 is space debris in LEO originally from a launch on Sat, 03 Apr 1965 UTC launched from the Air Force Western Test Range (AFWTR). Debris objects in space refer to the collection of defunct objects orbiting the Earth. Examples of debris include non-operational satellites, rocket bodies, and fragments generated from explosions, collisions, or faulty payload assembly.

Loading next visibility...
Identifier
38400, 1965-027DD
Orbit
LEO
Country
Flag of USUS
Related business
Manufacturer
Unknown
Mission
Spacecraft
Bus & Motor
Unknown
Mass
Unknown
Launch date (UTC)
1965-04-03 (61 years ago)
Launch vehicle
Unknown
Launch site
Air Force Western Test Range (AFWTR)
Object type
Payload
Rocket body
Debris
Shape & HBR
Unknown shape, 0.1 m
Radar Cross Section
Small (<0.1 m²)

Expand to show TLE details & history
Last TLE update: 11 hours ago

TLE from 11 hours ago
0 OPS 4682 DEB
1 38400U 65027DD  25294.67378236  .00000809  00000-0  27226-2 0  9997
2 38400  90.2532  11.6971 0030842 268.6626  91.0961 12.98350521583318
Epoch: 2025-10-21T16:10Z
TLE epoch observation values (Epoch: 2025-10-21T16:10:14.795Z)
Latitude
-0.00013°
Longitude
98.7771°
Altitude
1,271.961 km
Speed
7.219 km/s
True Right ascension
00h 46m 47s
True Declination
0° 00' 00"
Sunlit
Object was in full shadow at epoch
Visualization orbit readout
Latitude
Unknown
Longitude
Unknown
Altitude
Unknown
Speed
Unknown
Apparent Right ascension
Unknown
Apparent Declination
Unknown
Sunlit
N/A
Visualization observer readout
Local Sidereal Time
21:48:26
Azimuth
Unknown
Elevation
Unknown
Doppler factor
Unknown
Orbital elements
Apogee altitude
1,289.261 km
Perigee altitude
1,242.111 km
Semi-major axis
7,643.823 km
Eccentricity
0.00308
Inclination
90.2532°
RAAN
11.6971°
Arg. of periapsis
268.6626°
True anomaly
91.44943°
Mean anomaly
91.0961°
Eccentric anomaly
91.27277°
Mean motion
3.24771 °/min
Orbital period
110.85 mins
BSTAR
0.0027226
Loading maneuver chart data...
Computing Atmospheric mass density...
Loading historical data...
Loading historical data...
Loading historical data...
Loading historical data...
Loading historical data...
Loading historical data...
Loading historical data...

Documentation

Showing up to 5 results
|